Regional Weather Roundup
Issued by NWS

Home | Current Version | Previous Version | Graphics & Text | Print | Product List | Glossary On
Versions: 1 2 3 4 5 6 7 8 9 10 11 12 13 14 15 16 17 18 19 20 21 22 23 24 25 26 27 28 29
000
ASUS45 KBOI 291910
RWRID
WEATHER ROUNDUP FOR IDAHO
NATIONAL WEATHER SERVICE BOISE ID
100 PM MDT WED OCT 29 2014

NOTE: "FAIR" INDICATES FEW OR NO CLOUDS BELOW 12000 FEET
WITH NO SIGNIFICANT WEATHER AND/OR OBSTRUCTIONS TO VISIBILITY

IDZ012-014-292000-
SOUTHWEST IDAHO


CITY           SKY/WX    TMP DP  RH WIND       PRES   REMARKS
BOISE          CLOUDY    60  36  40 CALM      30.23R
CALDWELL       PTSUNNY   55  34  44 MISG      30.27R
MOUNTAIN HOME  PTSUNNY   57  30  35 VRB2      30.23S
$$

IDZ016-017-292000-
SOUTHCENTRAL IDAHO


CITY           SKY/WX    TMP DP  RH WIND       PRES   REMARKS
BURLEY         CLOUDY    59  32  36 W7        30.24S
JEROME         PTSUNNY   59  29  31 W7        30.25F
TWIN FALLS     MOSUNNY   60  34  37 NW5       30.25F
$$

IDZ019>023-292000-
SOUTHEAST IDAHO


CITY           SKY/WX    TMP DP  RH WIND       PRES   REMARKS
IDAHO FALLS    PTSUNNY   51  26  37 W5        30.26F
POCATELLO      PTSUNNY   59  29  31 SW12G20   30.26R
REXBURG        MOSUNNY   51  23  33 SW10      30.25F
$$

IDZ006-010-011-018-031-032-292000-
CENTRAL IDAHO MOUNTAINS


CITY           SKY/WX    TMP DP  RH WIND       PRES   REMARKS
MCCALL         MOSUNNY   48  40  73 SW3       30.23R
HAILEY         MOSUNNY   54  34  47 E8        30.26F
STANLEY          N/A     49  29  46 S5        30.26S
SALMON         CLOUDY    46  34  61 CALM      30.21F
CHALLIS        CLOUDY    48  36  63 N5        30.22F
$$

IDZ002-004-006-007-026-292000-
NORTHERN IDAHO


CITY           SKY/WX    TMP DP  RH WIND       PRES   REMARKS
LEWISTON       MOSUNNY   54  49  83 N3        30.18S
LOWELL           N/A     54  47  77 N5        30.22S
COEUR D`ALENE  CLOUDY    52  46  82 CALM      30.16S
MULLAN PASS    LGT RAIN  37  37 100 VRB5      30.18R VSB<1/4 WCI  33
$$



USA.gov is the U.S. government's official web portal to all federal, state and local government web resources and services.